SCP
0 0 0 0 0 0 0 0 0 0 0 0 0 0 0 0 0 0 0 0 0 0 0 0 0 0 0 0 0 0 0 0 0 0 0 0 0 0
0 0 0 0 0 0 0 0 0 0 0 0 0 0 0 0 0 0 0 0 0 0 0 0 0 0 0 0 0 0 0 0 0 0 0 0 0 0
0 0 0 0 0 0 0 0 0 0 0 0 0 0 0 0 0 0 0 0 0 0 0 0 0 0 0 0 0 0 0 0 0 0 0 0 0 0
0 0 0 0 0 0 0 0 0 0 0 0 0 0 0 0 0 0 0 0 0 0 0 0 0 0 0 0 0 0 0 0 0 0 0 0 0 0
0 0 0 0 0 0 0 0 0 0 0 0 0 0 0 0 0 0 0 0 0 0 0 0 0 0 0 0 0 0 0 0 0 0 0 0 0 0
0 0 0 0 0 0 0 0 0 0 0 0 0 0 0 0 0 0 0 0 0 0 0 0 0 0 0 0 0 0 0 0 0 0 0 0 0 0
0 0 0 0 0 0 0 0 0 0 0 0 0 0 0 0 0 0 0 0 0 0 0 0 0 0 0 0 0 0 0 0 0 0 0 0 0 0
0 0 0 0 0 0 0 0 0 0 0 0 0 0 0 0 0 0 0 0 0 0 0 0 0 0 0 0 0 0 0 0 0 0 0 0 0 0
0 0 0 0 0 0 0 0 0 0 0 0 0 0 0 0 0 0 0 0 0 0 0 0 0 0 0 0 0 0 0 0 0 0 0 0 0 0
0 0 0 0 0 0 0 0 0 0 0 0 0 0 0 0 0 0 0 0 0 0 0 0 0 0 0 0 -0 -0 0 0 0 0 0 0 0 0
0 0 0 0 0 0 0 0 0 0 0 0 0 0 0 0 0 0 0 0 0 0 0 0 0 0 0 -0 0 0 -0 -0 0 0 0 0 0 0
0 0 0 0 0 0 0 0 0 0 0 0 0 0 0 0 0 0 0 0 0 0 0 0 0 0 0 0 0 0 -0 -0 0 0 -0 -0 0 0
0 0 0 0 0 0 0 0 0 0 0 0 0 0 0 0 0 0 0 0 0 0 0 0 0 0 0 0 0 0 0 0 0 -0 -0 0 0 0
0 0 0 0 0 0 0 0 0 0 0 0 0 0 0 0 0 0 0 0 0 0 0 0 0 0 0 0 0 0 0 0 0 -0 -0 -0 0 0
0 0 0 0 0 0 0 0 0 0 0 0 0 0 0 0 0 0 0 0 0 0 0 0 0 0 0 0 0 0 0 0 0 0 0 0 0 0
0 0 0 0 0 0 0 0 0 0 0 0 0 0 0 0 0 0 0 0 0 0 0 0 0 0 0 0 0 0 0 0 0 0 0 0 0 0
0 0 0 0 0 0 0 0 0 0 0 0 0 0 0 0 0 0 0 0 0 0 0 0 0 0 0 0 0 0 0 0 0 0 -0 0 0 0
0 0 0 0 0 0 0 0 0 0 0 0 0 0 0 0 0 0 0 0 0 0 0 0 0 0 0 0 0 0 0 0 0 0 0 -0 0 0
0 0 0 0 0 0 0 0 0 0 0 0 0 0 0 0 0 0 0 0 0 0 0 0 0 0 0 0 0 0 0 0 0 0 0 0 -0 0
0 0 0 0 0 0 0 0 0 0 0 0 0 0 0 0 0 0 0 0 0 0 0 0 0 0 0 0 0 0 0 0 0 0 0 0 0 0
0 0 0 0 0 0 0 0 0 0 0 0 0 0 0 0 0 0 0 0 0 0 0 0 0 0 0 0 0 0 0 0 0 0 0 0 -0 0
0 0 0 0 0 0 0 0 0 0 0 0 0 0 0 0 0 0 0 0 0 0 0 0 0 0 0 0 0 0 0 0 0 0 0 0 -0 0
0 0 0 0 0 0 0 0 0 0 0 0 0 0 0 0 0 0 0 0 0 0 0 0 0 0 0 0 0 0 0 0 0 0 0 0 -0 -0
Wind_Speed_500mb
14 13 11 10 8 7 6 6 5 2 1 10 10 30 29 30 33 35 35 38 40 41 43 44 47 48 50 53 54 53 54 56 57 58 59 58 53 50
12 11 10 8 8 8 8 6 6 7 2 12 22 31 34 36 37 37 35 35 37 39 41 42 46 50 54 57 58 59 61 62 62 61 61 57 52 50
12 10 10 12 13 10 8 6 4 4 4 15 24 29 32 34 36 38 37 38 40 42 43 44 48 51 54 57 58 61 63 64 63 57 50 49 53 56
11 12 13 12 9 7 7 6 7 7 9 12 21 27 32 34 37 39 39 42 46 45 43 45 49 52 55 54 56 60 62 61 55 45 51 54 54 55
13 13 11 8 6 5 8 10 9 9 11 14 19 25 31 36 39 40 43 41 47 51 47 48 53 52 50 50 52 57 58 53 45 53 56 53 56 54
14 13 9 6 5 6 6 7 8 10 13 15 19 24 30 37 44 51 51 50 56 53 51 59 57 51 48 49 53 55 51 45 49 60 57 58 59 62
12 9 6 7 7 6 6 8 10 12 15 17 20 25 33 41 49 53 55 60 58 53 63 57 58 56 58 52 57 55 41 51 56 61 60 61 66 63
12 9 8 6 4 5 6 9 12 14 17 19 22 28 34 40 44 48 54 62 65 57 70 67 60 67 64 67 60 40 48 62 64 60 61 69 64 63
15 12 9 5 5 5 8 10 12 15 18 23 26 29 34 39 44 45 48 52 57 61 65 74 68 74 77 75 49 35 70 68 63 63 74 67 64 60
18 14 12 6 3 5 7 10 12 16 21 26 29 30 32 36 40 45 50 53 53 49 57 65 80 83 84 69 57 61 79 62 68 76 70 64 59 64
20 17 13 7 4 4 6 8 14 20 23 26 29 31 33 36 39 42 46 53 59 59 43 66 76 87 88 66 58 89 79 77 71 77 66 59 64 74
19 16 15 10 5 4 7 10 15 20 24 26 28 30 32 35 38 41 44 48 51 50 42 70 70 71 66 67 97 92 81 84 81 70 62 59 74 72
20 18 14 12 7 7 9 12 18 23 26 28 29 30 33 35 37 38 41 44 47 47 48 56 66 66 62 86 98 82 88 84 82 71 78 73 73 69
23 20 13 12 12 12 13 16 20 25 27 28 30 30 31 33 36 37 38 40 43 48 48 49 59 63 67 81 87 90 82 86 74 83 86 87 81 70
24 20 15 15 16 15 16 19 22 25 26 28 30 31 33 34 36 37 38 38 39 41 44 48 54 61 63 66 78 84 88 93 74 93 95 94 92 88
26 23 18 17 16 18 20 21 24 25 27 29 30 33 34 35 37 40 44 46 47 44 43 50 55 56 63 66 75 77 82 68 99 98 99 101 96 89
24 23 20 18 18 20 22 24 25 26 28 29 32 34 36 36 37 41 45 47 50 54 55 56 57 58 61 68 75 71 80 88 93 101 98 107 104 98
28 25 22 22 23 24 25 26 27 27 28 31 34 35 36 37 39 40 43 46 50 51 55 60 64 71 73 71 60 74 82 93 100 95 97 95 113 107
31 26 25 26 27 26 28 30 29 27 29 33 35 36 36 36 38 40 43 46 48 49 50 55 58 64 77 86 81 73 87 94 95 97 95 97 103 115
32 28 28 29 29 30 30 30 30 30 31 33 34 35 36 36 37 39 41 46 49 50 53 53 52 56 65 74 85 92 85 80 88 100 107 101 98 100
30 30 31 32 32 31 31 32 33 32 33 33 34 35 36 37 38 40 42 44 48 50 56 56 51 51 61 70 77 91 93 91 74 79 96 98 100 110
34 34 34 34 34 34 34 35 34 33 34 34 35 35 36 37 39 41 43 45 44 47 53 55 53 58 63 70 80 90 101 107 109 97 82 71 88 103
38 38 38 38 37 37 37 35 34 35 35 35 35 36 36 37 39 40 42 44 46 46 50 58 57 59 65 69 79 89 97 104 106 127 125 106 93 97
Wind_Direction_500mb
310 317 325 331 329 321 306 289 268 233 67 305 280 309 326 334 340 339 339 335 329 326 325 322 318 320 321 319 315 312 309 308 307 306 307 309 314 314
303 310 315 317 316 314 309 302 282 263 256 281 302 319 332 332 335 335 337 334 329 326 325 323 321 319 317 317 315 312 310 309 307 306 306 308 314 314
289 293 304 313 317 321 324 327 322 294 248 297 310 317 324 332 334 337 340 335 330 328 328 324 320 318 318 317 315 313 312 309 309 310 319 317 313 311
280 294 300 305 318 333 343 11 2 334 310 303 313 324 330 334 338 339 341 337 332 331 332 326 324 327 324 322 319 314 310 309 311 326 321 320 318 313
286 290 295 306 329 0 347 340 346 344 340 333 329 334 334 334 334 336 339 339 334 333 334 331 335 332 327 324 320 314 309 309 323 322 320 321 318 318
278 279 283 296 318 329 333 345 354 353 352 348 340 339 334 337 340 339 338 339 337 335 339 339 339 336 334 330 323 317 315 311 323 319 320 320 317 313
269 276 274 282 297 322 340 358 1 0 0 354 344 342 339 342 344 343 338 337 343 336 337 341 338 340 340 336 332 327 321 326 323 322 320 319 314 311
248 242 261 283 303 331 348 353 0 3 357 354 349 346 341 340 339 338 339 341 344 340 335 341 340 340 339 341 338 329 334 332 329 325 324 320 319 314
238 240 241 261 303 334 347 353 354 354 356 354 343 342 340 336 335 336 338 339 339 340 336 334 340 337 340 340 344 344 341 333 332 330 326 323 319 318
231 230 234 215 258 318 337 339 345 353 351 344 338 333 334 335 337 339 337 334 336 341 332 332 340 337 336 342 347 341 338 338 338 330 327 323 323 319
223 219 227 233 215 288 309 333 345 343 338 335 335 334 333 335 337 335 333 335 340 346 334 333 337 333 336 343 336 339 342 339 331 332 328 327 328 321
222 214 231 250 231 289 328 332 331 334 334 333 333 332 332 334 333 334 337 340 341 343 328 332 336 340 333 332 333 342 340 340 334 336 336 328 331 326
229 225 222 253 291 298 312 321 328 329 326 325 327 331 331 330 331 335 337 336 335 332 337 331 331 333 329 328 333 342 341 336 339 342 341 329 335 327
233 238 239 258 283 297 309 315 321 319 316 320 325 326 325 326 328 330 333 334 335 334 336 334 327 332 332 334 331 337 340 342 347 345 332 336 337 334
234 237 241 259 278 291 298 307 310 306 311 317 320 322 323 323 325 327 330 334 338 338 336 333 331 333 337 334 329 338 343 344 345 335 340 338 339 337
231 237 246 256 271 284 293 298 298 302 309 313 318 319 319 322 325 329 333 336 337 341 341 340 340 341 338 343 338 338 346 324 339 340 340 338 335 334
235 241 251 263 273 281 286 290 295 299 305 313 316 316 317 321 326 330 333 335 339 340 342 342 342 340 344 347 339 340 337 334 340 341 334 328 331 332
239 245 256 266 272 277 283 287 290 298 309 314 313 313 315 320 324 327 330 334 336 340 341 343 343 343 343 342 352 340 339 339 341 331 328 322 321 331
237 245 257 265 271 277 282 285 292 302 309 308 308 311 314 317 320 325 329 332 334 335 342 345 347 348 338 335 341 357 343 343 329 328 327 325 319 322
234 246 259 267 271 274 278 284 291 298 302 304 308 310 310 314 319 323 328 330 332 334 338 348 348 345 338 333 333 347 357 332 335 329 330 324 326 327
240 252 261 267 271 275 280 284 288 294 301 307 307 305 308 314 319 324 326 329 330 332 335 343 346 341 339 339 333 341 347 351 337 333 328 326 327 325
248 255 263 270 275 277 278 280 286 295 302 305 304 305 308 313 318 321 323 326 329 328 330 337 343 344 345 341 338 340 345 349 351 342 339 335 329 324
253 260 267 272 275 276 277 281 288 296 301 302 304 305 306 310 314 317 320 323 325 327 331 335 342 345 345 343 341 341 345 345 340 345 352 351 340 336
Wind_Speed_850mb
14 13 11 10 8 7 6 6 5 2 1 10 10 30 29 30 33 35 35 38 40 41 43 44 47 48 50 53 54 53 54 56 57 58 59 58 53 50
12 11 10 8 8 8 8 6 6 7 2 12 22 31 34 36 37 37 35 35 37 39 41 42 46 50 54 57 58 59 61 62 62 61 61 57 52 50
12 10 10 12 13 10 8 6 4 4 4 15 24 29 32 34 36 38 37 38 40 42 43 44 48 51 54 57 58 61 63 64 63 57 50 49 53 56
11 12 13 12 9 7 7 6 7 7 9 12 21 27 32 34 37 39 39 42 46 45 43 45 49 52 55 54 56 60 62 61 55 45 51 54 54 55
13 13 11 8 6 5 8 10 9 9 11 14 19 25 31 36 39 40 43 41 47 51 47 48 53 52 50 50 52 57 58 53 45 53 56 53 56 54
14 13 9 6 5 6 6 7 8 10 13 15 19 24 30 37 44 51 51 50 56 53 51 59 57 51 48 49 53 55 51 45 49 60 57 58 59 62
12 9 6 7 7 6 6 8 10 12 15 17 20 25 33 41 49 53 55 60 58 53 63 57 58 56 58 52 57 55 41 51 56 61 60 61 66 63
12 9 8 6 4 5 6 9 12 14 17 19 22 28 34 40 44 48 54 62 65 57 70 67 60 67 64 67 60 40 48 62 64 60 61 69 64 63
15 12 9 5 5 5 8 10 12 15 18 23 26 29 34 39 44 45 48 52 57 61 65 74 68 74 77 75 49 35 70 68 63 63 74 67 64 60
18 14 12 6 3 5 7 10 12 16 21 26 29 30 32 36 40 45 50 53 53 49 57 65 80 83 84 69 57 61 79 62 68 76 70 64 59 64
20 17 13 7 4 4 6 8 14 20 23 26 29 31 33 36 39 42 46 53 59 59 43 66 76 87 88 66 58 89 79 77 71 77 66 59 64 74
19 16 15 10 5 4 7 10 15 20 24 26 28 30 32 35 38 41 44 48 51 50 42 70 70 71 66 67 97 92 81 84 81 70 62 59 74 72
20 18 14 12 7 7 9 12 18 23 26 28 29 30 33 35 37 38 41 44 47 47 48 56 66 66 62 86 98 82 88 84 82 71 78 73 73 69
23 20 13 12 12 12 13 16 20 25 27 28 30 30 31 33 36 37 38 40 43 48 48 49 59 63 67 81 87 90 82 86 74 83 86 87 81 70
24 20 15 15 16 15 16 19 22 25 26 28 30 31 33 34 36 37 38 38 39 41 44 48 54 61 63 66 78 84 88 93 74 93 95 94 92 88
26 23 18 17 16 18 20 21 24 25 27 29 30 33 34 35 37 40 44 46 47 44 43 50 55 56 63 66 75 77 82 68 99 98 99 101 96 89
24 23 20 18 18 20 22 24 25 26 28 29 32 34 36 36 37 41 45 47 50 54 55 56 57 58 61 68 75 71 80 88 93 101 98 107 104 98
28 25 22 22 23 24 25 26 27 27 28 31 34 35 36 37 39 40 43 46 50 51 55 60 64 71 73 71 60 74 82 93 100 95 97 95 113 107
31 26 25 26 27 26 28 30 29 27 29 33 35 36 36 36 38 40 43 46 48 49 50 55 58 64 77 86 81 73 87 94 95 97 95 97 103 115
32 28 28 29 29 30 30 30 30 30 31 33 34 35 36 36 37 39 41 46 49 50 53 53 52 56 65 74 85 92 85 80 88 100 107 101 98 100
30 30 31 32 32 31 31 32 33 32 33 33 34 35 36 37 38 40 42 44 48 50 56 56 51 51 61 70 77 91 93 91 74 79 96 98 100 110
34 34 34 34 34 34 34 35 34 33 34 34 35 35 36 37 39 41 43 45 44 47 53 55 53 58 63 70 80 90 101 107 109 97 82 71 88 103
38 38 38 38 37 37 37 35 34 35 35 35 35 36 36 37 39 40 42 44 46 46 50 58 57 59 65 69 79 89 97 104 106 127 125 106 93 97
Wind_Direction_850mb
310 317 325 331 329 321 306 289 268 233 67 305 280 309 326 334 340 339 339 335 329 326 325 322 318 320 321 319 315 312 309 308 307 306 307 309 314 314
303 310 315 317 316 314 309 302 282 263 256 281 302 319 332 332 335 335 337 334 329 326 325 323 321 319 317 317 315 312 310 309 307 306 306 308 314 314
289 293 304 313 317 321 324 327 322 294 248 297 310 317 324 332 334 337 340 335 330 328 328 324 320 318 318 317 315 313 312 309 309 310 319 317 313 311
280 294 300 305 318 333 343 11 2 334 310 303 313 324 330 334 338 339 341 337 332 331 332 326 324 327 324 322 319 314 310 309 311 326 321 320 318 313
286 290 295 306 329 0 347 340 346 344 340 333 329 334 334 334 334 336 339 339 334 333 334 331 335 332 327 324 320 314 309 309 323 322 320 321 318 318
278 279 283 296 318 329 333 345 354 353 352 348 340 339 334 337 340 339 338 339 337 335 339 339 339 336 334 330 323 317 315 311 323 319 320 320 317 313
269 276 274 282 297 322 340 358 1 0 0 354 344 342 339 342 344 343 338 337 343 336 337 341 338 340 340 336 332 327 321 326 323 322 320 319 314 311
248 242 261 283 303 331 348 353 0 3 357 354 349 346 341 340 339 338 339 341 344 340 335 341 340 340 339 341 338 329 334 332 329 325 324 320 319 314
238 240 241 261 303 334 347 353 354 354 356 354 343 342 340 336 335 336 338 339 339 340 336 334 340 337 340 340 344 344 341 333 332 330 326 323 319 318
231 230 234 215 258 318 337 339 345 353 351 344 338 333 334 335 337 339 337 334 336 341 332 332 340 337 336 342 347 341 338 338 338 330 327 323 323 319
223 219 227 233 215 288 309 333 345 343 338 335 335 334 333 335 337 335 333 335 340 346 334 333 337 333 336 343 336 339 342 339 331 332 328 327 328 321
222 214 231 250 231 289 328 332 331 334 334 333 333 332 332 334 333 334 337 340 341 343 328 332 336 340 333 332 333 342 340 340 334 336 336 328 331 326
229 225 222 253 291 298 312 321 328 329 326 325 327 331 331 330 331 335 337 336 335 332 337 331 331 333 329 328 333 342 341 336 339 342 341 329 335 327
233 238 239 258 283 297 309 315 321 319 316 320 325 326 325 326 328 330 333 334 335 334 336 334 327 332 332 334 331 337 340 342 347 345 332 336 337 334
234 237 241 259 278 291 298 307 310 306 311 317 320 322 323 323 325 327 330 334 338 338 336 333 331 333 337 334 329 338 343 344 345 335 340 338 339 337
231 237 246 256 271 284 293 298 298 302 309 313 318 319 319 322 325 329 333 336 337 341 341 340 340 341 338 343 338 338 346 324 339 340 340 338 335 334
235 241 251 263 273 281 286 290 295 299 305 313 316 316 317 321 326 330 333 335 339 340 342 342 342 340 344 347 339 340 337 334 340 341 334 328 331 332
239 245 256 266 272 277 283 287 290 298 309 314 313 313 315 320 324 327 330 334 336 340 341 343 343 343 343 342 352 340 339 339 341 331 328 322 321 331
237 245 257 265 271 277 282 285 292 302 309 308 308 311 314 317 320 325 329 332 334 335 342 345 347 348 338 335 341 357 343 343 329 328 327 325 319 322
234 246 259 267 271 274 278 284 291 298 302 304 308 310 310 314 319 323 328 330 332 334 338 348 348 345 338 333 333 347 357 332 335 329 330 324 326 327
240 252 261 267 271 275 280 284 288 294 301 307 307 305 308 314 319 324 326 329 330 332 335 343 346 341 339 339 333 341 347 351 337 333 328 326 327 325
248 255 263 270 275 277 278 280 286 295 302 305 304 305 308 313 318 321 323 326 329 328 330 337 343 344 345 341 338 340 345 349 351 342 339 335 329 324
253 260 267 272 275 276 277 281 288 296 301 302 304 305 306 310 314 317 320 323 325 327 331 335 342 345 345 343 341 341 345 345 340 345 352 351 340 336